User: anonymous   Login
Location: Albany
(35.0000°S, 118.0000°E)
Time: 04:40:49
(UTC-04:00)
Language:

ERS-1 Rocket - Orbit

View from above orbital plane
View from above orbital plane
View from above satellite
View from above satellite

Ground track
Ground track

The orbit data is extracted from the following two-line orbital elements,

1 21610U 91050F   16274.73107362  .00000068  00000-0  35355-4 0  9993
2 21610  98.6447 323.1712 0003278  19.9193  88.8537 14.40761533322753
Epoch (UTC): 30 September 2016 17:32:44
Eccentricity: 0.0003278
inclination: 98.6447°
perigee height: 753 km
apogee height: 758 km
right ascension of ascending node: 323.1712°
argument of perigee: 19.9193°
revolutions per day: 14.40761533
mean anomaly at epoch: 88.8537°
orbit number at epoch: 32275

The dashed part of the orbit path shows where the satellite is in the earth's shadow,  

DLR